Year,Month,Day,Hour,Minute,Value (Times are PST for temperature in C)
2011,04,28,08,24,6.60
2011,04,28,08,25,6.60
2011,04,28,08,26,6.70
2011,04,28,08,27,6.70
2011,04,28,08,28,6.70
2011,04,28,08,29,6.70
2011,04,28,08,30,6.70
2011,04,28,08,31,6.70
2011,04,28,08,32,6.70
2011,04,28,08,33,6.70
2011,04,28,08,34,6.70
2011,04,28,08,35,6.70
2011,04,28,08,36,6.70
2011,04,28,08,37,6.70
2011,04,28,08,38,6.70
2011,04,28,08,39,6.70
2011,04,28,08,40,6.70
2011,04,28,08,57,6.40
2011,04,28,08,58,6.40
2011,04,28,08,59,6.40
2011,04,28,09,00,6.50
2011,04,28,09,01,6.50
2011,04,28,09,02,6.50
2011,04,28,09,03,6.50
2011,04,28,09,04,6.60
2011,04,28,09,05,6.60
2011,04,28,09,06,6.60
2011,04,28,09,07,6.60
2011,04,28,09,08,6.60
2011,04,28,09,09,6.70
2011,04,28,09,10,6.70
2011,04,28,09,11,6.70
2011,04,28,09,12,6.80
2011,04,28,09,13,6.80
2011,04,28,09,14,6.80
2011,04,28,09,15,6.80
2011,04,28,09,16,6.80
2011,04,28,09,17,6.80
2011,04,28,09,18,6.80
2011,04,28,09,19,6.80
2011,04,28,09,20,6.90
2011,04,28,09,21,6.90
2011,04,28,09,22,6.90
2011,04,28,09,23,6.90
2011,04,28,09,24,6.90
2011,04,28,09,25,6.90
2011,04,28,09,26,6.90
2011,04,28,09,27,6.90
2011,04,28,09,28,6.90
2011,04,28,09,29,6.90
2011,04,28,09,30,7.00
2011,04,28,09,31,7.00
2011,04,28,09,32,7.00
2011,04,28,09,33,7.10
2011,04,28,09,34,7.10
2011,04,28,09,35,7.10
2011,04,28,09,36,7.10
2011,04,28,09,37,7.20
2011,04,28,09,38,7.20
2011,04,28,09,39,7.30
2011,04,28,09,40,7.40
2011,04,28,09,41,7.50
2011,04,28,09,42,7.60
2011,04,28,09,43,7.70
2011,04,28,09,44,7.80
2011,04,28,09,45,7.80
2011,04,28,09,46,7.90
2011,04,28,09,47,8.00
2011,04,28,09,48,8.00
2011,04,28,09,49,8.10
2011,04,28,09,50,8.10
2011,04,28,09,51,8.20
2011,04,28,09,52,8.30
2011,04,28,09,53,8.30
2011,04,28,09,54,8.20
2011,04,28,09,55,8.20
2011,04,28,09,56,8.30
2011,04,28,09,57,8.30
2011,04,28,09,58,8.30
2011,04,28,09,59,8.40
2011,04,28,10,00,8.50
2011,04,28,10,01,8.50
2011,04,28,10,02,8.60
2011,04,28,10,03,8.80
2011,04,28,10,04,8.80
2011,04,28,10,05,8.80
2011,04,28,10,06,8.90
2011,04,28,10,07,8.90
2011,04,28,10,08,8.90
2011,04,28,10,09,8.90
2011,04,28,10,10,8.80
2011,04,28,10,11,8.70
2011,04,28,10,12,8.70
2011,04,28,10,13,8.70
2011,04,28,10,14,8.70
2011,04,28,10,15,8.60
2011,04,28,10,16,8.50
2011,04,28,10,17,8.40
2011,04,28,10,18,8.30
2011,04,28,10,19,8.30
2011,04,28,10,20,8.40
2011,04,28,10,21,8.40
2011,04,28,10,22,8.40
2011,04,28,10,23,8.50
2011,04,28,10,24,8.50
2011,04,28,10,25,8.60
2011,04,28,10,26,8.70
2011,04,28,10,27,8.80
2011,04,28,10,28,9.00
2011,04,28,10,29,9.10
2011,04,28,10,30,9.20
2011,04,28,10,31,9.30
2011,04,28,10,32,9.40
2011,04,28,10,33,9.50
2011,04,28,10,34,9.60
2011,04,28,10,35,9.60
2011,04,28,10,36,9.60
2011,04,28,10,37,9.60
2011,04,28,10,38,9.50
2011,04,28,10,39,9.40
2011,04,28,10,40,9.30
2011,04,28,10,41,9.30
2011,04,28,10,42,9.30
2011,04,28,10,43,9.10
2011,04,28,10,44,9.00
2011,04,28,10,45,8.90
2011,04,28,10,46,8.90
2011,04,28,10,47,8.90
2011,04,28,10,48,8.90
2011,04,28,10,49,8.90
2011,04,28,10,50,8.90
2011,04,28,10,51,8.90
2011,04,28,10,52,8.90
2011,04,28,10,53,9.00
2011,04,28,10,54,8.90
2011,04,28,10,55,8.90
2011,04,28,10,56,8.90
2011,04,28,10,57,9.00
2011,04,28,10,58,9.10
2011,04,28,10,59,9.10
2011,04,28,11,00,9.20
2011,04,28,11,01,9.20
2011,04,28,11,02,9.20
2011,04,28,11,03,9.30
2011,04,28,11,04,9.40
2011,04,28,11,05,9.40
2011,04,28,11,06,9.50
2011,04,28,11,07,9.60
2011,04,28,11,08,9.70
2011,04,28,11,09,9.80
2011,04,28,11,10,10.00
2011,04,28,11,11,10.00
2011,04,28,11,12,9.90
2011,04,28,11,13,9.80
2011,04,28,11,14,9.70
2011,04,28,11,15,9.70
2011,04,28,11,16,9.70
2011,04,28,11,17,9.60
2011,04,28,11,18,9.70
2011,04,28,11,19,9.70
2011,04,28,11,20,9.70
2011,04,28,11,21,9.60
2011,04,28,11,22,9.50
2011,04,28,11,23,9.40
2011,04,28,11,24,9.50
2011,04,28,11,25,9.60
2011,04,28,11,26,9.70
2011,04,28,11,27,9.80
2011,04,28,11,28,9.80
2011,04,28,11,29,9.80
2011,04,28,11,30,9.80
2011,04,28,11,31,9.70
2011,04,28,11,32,9.50
2011,04,28,11,33,9.40
2011,04,28,11,34,9.30
2011,04,28,11,35,9.10
2011,04,28,11,36,9.10
2011,04,28,11,37,9.10
2011,04,28,11,38,9.20
2011,04,28,11,39,9.10
2011,04,28,11,40,9.10
2011,04,28,11,41,9.10
2011,04,28,11,42,9.10
2011,04,28,11,43,9.10
2011,04,28,11,44,9.20
2011,04,28,11,45,9.30
2011,04,28,11,46,9.30
2011,04,28,11,47,9.30
2011,04,28,11,48,9.40
2011,04,28,11,49,9.40
2011,04,28,11,50,9.30
2011,04,28,11,51,9.20
2011,04,28,11,52,9.20
2011,04,28,11,53,9.20
2011,04,28,11,54,9.20
2011,04,28,11,55,9.10
2011,04,28,11,56,9.00
2011,04,28,11,57,9.00
2011,04,28,11,58,9.00
2011,04,28,11,59,9.10
2011,04,28,12,00,9.10
2011,04,28,12,01,9.20
2011,04,28,12,02,9.20
2011,04,28,12,03,9.10
2011,04,28,12,04,9.10
2011,04,28,12,05,9.10
2011,04,28,12,06,9.00
2011,04,28,12,07,9.00
2011,04,28,12,08,9.10
2011,04,28,12,09,9.10
2011,04,28,12,10,9.20
2011,04,28,12,11,9.30
2011,04,28,12,12,9.40
2011,04,28,12,13,9.40
2011,04,28,12,14,9.40
2011,04,28,12,15,9.40
2011,04,28,12,16,9.50
2011,04,28,12,17,9.60
2011,04,28,12,18,9.70
2011,04,28,12,19,9.70
2011,04,28,12,20,9.60
2011,04,28,12,21,9.60
2011,04,28,12,22,9.70
2011,04,28,12,23,9.80
2011,04,28,12,24,9.90
2011,04,28,12,25,9.90
2011,04,28,12,26,10.00
2011,04,28,12,27,10.00
2011,04,28,12,28,10.00
2011,04,28,12,29,10.00
2011,04,28,12,30,9.90
2011,04,28,12,31,9.80
2011,04,28,12,32,9.80
2011,04,28,12,33,9.80
2011,04,28,12,34,9.70
2011,04,28,12,35,9.70
2011,04,28,12,36,9.70
2011,04,28,12,37,9.80
2011,04,28,12,38,9.80
2011,04,28,12,39,9.80
2011,04,28,12,40,9.80
2011,04,28,12,41,9.70
2011,04,28,12,42,9.80
2011,04,28,12,43,9.80
2011,04,28,12,44,9.80
2011,04,28,12,45,10.00
2011,04,28,12,46,10.00
2011,04,28,12,47,10.00
2011,04,28,12,48,9.90
2011,04,28,12,49,9.80
2011,04,28,12,50,9.80
2011,04,28,12,51,9.90
2011,04,28,12,52,9.90
2011,04,28,12,53,9.90
2011,04,28,12,54,9.90
2011,04,28,12,55,9.80
2011,04,28,12,56,9.80
2011,04,28,12,57,9.70
2011,04,28,12,58,9.70
2011,04,28,12,59,9.60
2011,04,28,13,00,9.60
2011,04,28,13,01,9.50
2011,04,28,13,02,9.50
2011,04,28,13,03,9.60
2011,04,28,13,04,9.60
2011,04,28,13,05,9.70
2011,04,28,13,06,9.70
2011,04,28,13,07,9.70
2011,04,28,13,08,9.70
2011,04,28,13,09,9.70
2011,04,28,13,10,9.80
2011,04,28,13,11,9.80
2011,04,28,13,12,9.70
2011,04,28,13,13,9.70
2011,04,28,13,14,9.70
2011,04,28,13,15,9.60
2011,04,28,13,16,9.60
2011,04,28,13,17,9.70
2011,04,28,13,18,9.70
2011,04,28,13,19,9.70
2011,04,28,13,20,9.70
2011,04,28,13,21,9.70
2011,04,28,13,22,9.70
2011,04,28,13,23,9.70
2011,04,28,13,24,9.80
2011,04,28,13,25,9.80
2011,04,28,13,26,9.80
2011,04,28,13,27,9.80
2011,04,28,13,28,9.80
2011,04,28,13,29,9.80
2011,04,28,13,30,9.90
2011,04,28,13,31,9.90
2011,04,28,13,32,10.00
2011,04,28,13,33,10.10
2011,04,28,13,34,10.20
2011,04,28,13,35,10.20
2011,04,28,13,36,10.20
2011,04,28,13,37,10.20
2011,04,28,13,38,10.30
2011,04,28,13,39,10.20
2011,04,28,13,40,10.20
2011,04,28,13,41,10.20
2011,04,28,13,42,10.30
2011,04,28,13,43,10.30
2011,04,28,13,44,10.40
2011,04,28,13,45,10.40
2011,04,28,13,46,10.50
2011,04,28,13,47,10.50
2011,04,28,13,48,10.60
2011,04,28,13,49,10.60
2011,04,28,13,50,10.60
2011,04,28,13,51,10.60
2011,04,28,13,52,10.60
2011,04,28,13,53,10.60
2011,04,28,13,54,10.50
2011,04,28,13,55,10.50
2011,04,28,13,56,10.60
2011,04,28,13,57,10.60
2011,04,28,13,58,10.60
2011,04,28,13,59,10.60
2011,04,28,14,00,10.50
2011,04,28,14,01,10.40
2011,04,28,14,02,10.30
2011,04,28,14,03,10.20
2011,04,28,14,04,10.10
2011,04,28,14,05,10.00
2011,04,28,14,06,10.00
2011,04,28,14,07,10.00
2011,04,28,14,08,10.00
2011,04,28,14,09,10.10
2011,04,28,14,10,10.10
2011,04,28,14,11,10.10
2011,04,28,14,12,10.00
2011,04,28,14,13,9.90
2011,04,28,14,14,9.80
2011,04,28,14,15,9.80
2011,04,28,14,16,9.90
2011,04,28,14,17,9.90
2011,04,28,14,18,10.00
2011,04,28,14,19,10.00
2011,04,28,14,20,10.10
2011,04,28,14,21,10.00
2011,04,28,14,22,10.00
2011,04,28,14,23,10.10
2011,04,28,14,24,10.00
2011,04,28,14,25,9.90
2011,04,28,14,26,9.90
2011,04,28,14,27,9.90
2011,04,28,14,28,9.80
2011,04,28,14,29,9.70
2011,04,28,14,30,9.60
2011,04,28,14,31,9.70
2011,04,28,14,32,9.70
2011,04,28,14,33,9.60
2011,04,28,14,34,9.70
2011,04,28,14,35,9.70
2011,04,28,14,36,9.80
2011,04,28,14,37,10.00
2011,04,28,14,38,10.10
2011,04,28,14,39,10.20
2011,04,28,14,40,10.20
2011,04,28,14,41,10.30
2011,04,28,14,42,10.30
2011,04,28,14,43,10.40
2011,04,28,14,44,10.40
2011,04,28,14,45,10.50
2011,04,28,14,46,10.60
2011,04,28,14,47,10.60
2011,04,28,14,48,10.80
2011,04,28,14,49,10.80
2011,04,28,14,50,10.80
2011,04,28,14,51,10.90
2011,04,28,14,52,11.00
2011,04,28,14,53,11.20
2011,04,28,14,54,11.10
2011,04,28,14,55,11.10
2011,04,28,14,56,11.10
2011,04,28,14,57,11.10
2011,04,28,14,58,11.20
2011,04,28,14,59,11.30
2011,04,28,15,00,11.40
2011,04,28,15,01,11.50
2011,04,28,15,02,11.60
2011,04,28,15,03,11.60
2011,04,28,15,04,11.60
2011,04,28,15,05,11.60
2011,04,28,15,06,11.60
2011,04,28,15,07,11.50
2011,04,28,15,08,11.50
2011,04,28,15,09,11.40
2011,04,28,15,10,11.30
2011,04,28,15,11,11.20
2011,04,28,15,12,11.20
2011,04,28,15,13,11.20
2011,04,28,15,14,11.20
2011,04,28,15,15,11.10
2011,04,28,15,16,11.10
2011,04,28,15,17,11.10
2011,04,28,15,18,11.10
2011,04,28,15,19,11.20
2011,04,28,15,20,11.20
2011,04,28,15,21,11.30
2011,04,28,15,22,11.20
2011,04,28,15,23,11.10
2011,04,28,15,24,11.00
2011,04,28,15,25,11.00
2011,04,28,15,26,11.10
2011,04,28,15,27,11.10
2011,04,28,15,28,11.20
2011,04,28,15,29,11.10
2011,04,28,15,30,11.10
2011,04,28,15,31,11.10
2011,04,28,15,32,11.00
2011,04,28,15,33,11.00
2011,04,28,15,34,10.90
2011,04,28,15,35,10.80
2011,04,28,15,36,10.80
2011,04,28,15,37,10.70
2011,04,28,15,38,10.60
2011,04,28,15,39,10.40
2011,04,28,15,40,10.20
2011,04,28,15,41,10.10
2011,04,28,15,42,10.00
2011,04,28,15,43,10.00
2011,04,28,15,44,10.10
2011,04,28,15,45,10.20
2011,04,28,15,46,10.20
2011,04,28,15,47,10.30
2011,04,28,15,48,10.50
2011,04,28,15,49,10.70
2011,04,28,15,50,10.80
2011,04,28,15,51,10.80
2011,04,28,15,52,10.90
2011,04,28,15,53,10.90
2011,04,28,15,54,10.90
2011,04,28,15,55,10.90
2011,04,28,15,56,11.00
2011,04,28,15,57,11.00
2011,04,28,15,58,11.10
2011,04,28,15,59,11.10
2011,04,28,16,00,11.10
2011,04,28,16,01,11.20
2011,04,28,16,02,11.20
2011,04,28,16,03,11.10
2011,04,28,16,04,10.90
2011,04,28,16,05,10.90
2011,04,28,16,06,10.80
2011,04,28,16,07,10.80
2011,04,28,16,08,10.80
2011,04,28,16,09,10.70
2011,04,28,16,10,10.70
2011,04,28,16,11,10.70
2011,04,28,16,12,10.60
2011,04,28,16,13,10.60
2011,04,28,16,14,10.60
2011,04,28,16,15,10.60
2011,04,28,16,16,10.60
2011,04,28,16,17,10.70
2011,04,28,16,18,10.80
2011,04,28,16,19,10.80
2011,04,28,16,20,10.80
2011,04,28,16,21,10.80
2011,04,28,16,22,10.70
2011,04,28,16,23,10.70
2011,04,28,16,24,10.70
2011,04,28,16,25,10.70
2011,04,28,16,26,10.70
2011,04,28,16,27,10.70
2011,04,28,16,28,10.70
2011,04,28,16,29,10.70
2011,04,28,16,30,10.70
2011,04,28,16,31,10.70
2011,04,28,17,22,10.10
2011,04,28,17,23,10.10
2011,04,28,17,24,10.20
2011,04,28,17,25,10.20
2011,04,28,17,26,10.20
2011,04,28,17,27,10.20
2011,04,28,17,28,10.20
2011,04,28,17,29,10.20
2011,04,28,17,30,10.20
2011,04,28,17,31,10.10
2011,04,28,17,32,10.00
2011,04,28,17,33,9.90
2011,04,28,17,34,9.90
2011,04,28,17,35,10.00
2011,04,28,17,36,10.10
2011,04,28,17,37,10.20
2011,04,28,17,38,10.10
2011,04,28,17,39,10.10
2011,04,28,17,40,10.00
2011,04,28,17,41,9.90
2011,04,28,17,42,9.90
2011,04,28,17,43,9.90
2011,04,28,17,44,10.00
2011,04,28,17,45,10.10
2011,04,28,17,46,10.10
2011,04,28,17,47,10.10
2011,04,28,17,48,10.10
2011,04,28,17,49,10.00
2011,04,28,17,50,10.00
2011,04,28,17,51,9.90
2011,04,28,17,52,9.90
2011,04,28,17,53,9.90
2011,04,28,17,54,9.90
2011,04,28,17,55,9.90
2011,04,28,17,56,9.90
2011,04,28,17,57,10.00
2011,04,28,17,58,10.10
2011,04,28,17,59,10.10
2011,04,28,18,00,10.20
2011,04,28,18,01,10.20
2011,04,28,18,02,10.20
2011,04,28,18,03,10.20
2011,04,28,18,04,10.20
2011,04,28,18,05,10.20
2011,04,28,18,06,10.20
2011,04,28,18,07,10.10
2011,04,28,18,08,10.10
2011,04,28,18,09,10.10
2011,04,28,18,10,10.20
2011,04,28,18,11,10.20
2011,04,28,18,12,10.20
2011,04,28,18,13,10.20
2011,04,28,18,14,10.10
2011,04,28,18,15,10.00
2011,04,28,18,16,9.90
2011,04,28,18,17,9.90
2011,04,28,18,18,9.90
2011,04,28,18,19,9.90
2011,04,28,18,20,9.90
2011,04,28,18,21,9.90
2011,04,28,18,22,9.80
2011,04,28,18,23,9.80
2011,04,28,18,24,9.80
2011,04,28,18,25,9.80
2011,04,28,18,26,9.80
2011,04,28,18,27,9.70
2011,04,28,18,28,9.70
2011,04,28,18,29,9.70
2011,04,28,18,30,9.60
2011,04,28,18,31,9.70
2011,04,28,18,32,9.80
2011,04,28,18,33,9.80
2011,04,28,18,34,9.90
2011,04,28,18,35,10.00
2011,04,28,18,36,10.00
2011,04,28,18,37,10.10
2011,04,28,18,38,10.20
2011,04,28,18,39,10.20
2011,04,28,18,40,10.20
2011,04,28,18,41,10.10
2011,04,28,18,42,10.00
2011,04,28,18,43,9.90
2011,04,28,18,44,9.80
2011,04,28,18,45,9.70
2011,04,28,18,46,9.60
2011,04,28,18,47,9.60
2011,04,28,18,48,9.50
2011,04,28,18,49,9.40
2011,04,28,18,50,9.40
2011,04,28,18,51,9.30
2011,04,28,18,52,9.40
2011,04,28,18,53,9.40
2011,04,28,18,54,9.40
2011,04,28,18,55,9.40
2011,04,28,18,56,9.40
2011,04,28,18,57,9.50
2011,04,28,18,58,9.50
2011,04,28,18,59,9.50
2011,04,28,19,00,9.40
2011,04,28,19,01,9.40
2011,04,28,19,02,9.40
2011,04,28,19,03,9.40
2011,04,28,19,04,9.40
2011,04,28,19,05,9.40
2011,04,28,19,06,9.30
2011,04,28,19,07,9.30
2011,04,28,19,08,9.20
2011,04,28,19,09,9.20
2011,04,28,19,10,9.10
2011,04,28,19,11,9.10
2011,04,28,19,12,9.00
2011,04,28,19,13,9.00
2011,04,28,19,14,8.90
2011,04,28,19,15,8.90
2011,04,28,19,16,8.90
2011,04,28,19,17,8.80
2011,04,28,19,18,8.80
2011,04,28,19,19,8.80
2011,04,28,19,20,8.80
2011,04,28,19,21,8.80
2011,04,28,19,22,8.80
2011,04,28,19,23,8.70
2011,04,28,19,24,8.70
2011,04,28,19,25,8.70
2011,04,28,19,26,8.60
2011,04,28,19,27,8.60
2011,04,28,19,28,8.60
2011,04,28,19,29,8.60
2011,04,28,19,30,8.60
2011,04,28,19,31,8.60
2011,04,28,19,32,8.60
2011,04,28,19,33,8.60
2011,04,28,19,34,8.60
2011,04,28,19,35,8.60
2011,04,28,19,36,8.60
2011,04,28,19,37,8.60
2011,04,28,19,38,8.50
2011,04,28,19,39,8.50
2011,04,28,19,40,8.40
2011,04,28,19,41,8.40
2011,04,28,19,42,8.40
2011,04,28,19,43,8.40
2011,04,28,19,44,8.40
2011,04,28,19,45,8.40
2011,04,28,19,46,8.40
2011,04,28,19,47,8.40
2011,04,28,19,48,8.40
2011,04,28,19,49,8.40
2011,04,28,19,50,8.40
